CYGFM07

Last updated on Fri Sep 11 2026 00:02:39 GMT+0000 (Coordinated Universal Time)

1 41890U 16078G 26253.58105191 .00021996 00000+0 21888-3 0 9998 2 41890 34.9453 19.1656 0005098 298.0632 61.9579 15.64686483542360
UTC large
Height (km)
Speed (km/s)
/
Latitude / Longitude
Inclination (degrees)
Orbital Period (minutes)
Azimuth
Elevation
Range (km)
Doppler Factor

Next 0 passes for location: London (51.5072 / 0.1276)

No passes found over London.
CYGFM07